EW4676 Weather Reports


Display with metric or nautical units.
time (UTC)temp
F
wind
direction
speed
MPH
gust
MPH
rain 1hr
in
rain 24hr
in
rain mn
in
humidity
%
barometer
mb
20260901214013 98 95 4.0 17.0 0.00 0.00 0.00 37 1013.2
20260901213503 98 42 3.0 7.0 0.00 0.00 0.00 37 1013.1
20260901212953 98 35 1.0 7.0 0.00 0.00 0.00 38 1013.2
20260901212443 97 76 1.0 4.0 0.00 0.00 0.00 37 1013.2
20260901211933 97 92 2.0 10.0 0.00 0.00 0.00 38 1013.4
20260901211925 98 92 2.0 10.0 0.00 0.00 0.00 37 1013.4
20260901210913 98 146 2.0 8.0 0.00 0.00 0.00 38 1013.4
20260901210403 98 92 3.0 8.0 0.00 0.00 0.00 37 1013.4
20260901205859 99 51 4.0 10.0 0.00 0.00 0.00 36 1013.5
20260901205349 97 107 4.0 11.0 0.00 0.00 0.00 38 1013.6
20260901204838 98 87 3.0 11.0 0.00 0.00 0.00 37 1013.6
20260901204829 99 42 2.0 9.0 0.00 0.00 0.00 37 1013.7
20260901203819 100 118 3.0 8.0 0.00 0.00 0.00 36 1013.6
20260901203309 99 35 3.0 9.0 0.00 0.00 0.00 37 1013.6
20260901202800 99 90 3.0 9.0 0.00 0.00 0.00 37 1013.7
20260901202249 99 97 4.0 10.0 0.00 0.00 0.00 37 1013.8
20260901201737 99 164 4.0 10.0 0.00 0.00 0.00 36 1013.9
20260901201227 100 95 3.0 10.0 0.00 0.00 0.00 37 1014.0
20260901200716 100 93 2.0 10.0 0.00 0.00 0.00 37 1014.0
20260901200207 99 71 3.0 10.0 0.00 0.00 0.00 37 1014.0
20260901195656 99 132 5.0 10.0 0.00 0.00 0.00 37 1014.1
20260901195145 100 136 4.0 10.0 0.00 0.00 0.00 37 1014.1
20260901194635 100 88 3.0 10.0 0.00 0.00 0.00 35 1014.2
20260901194124 99 64 4.0 14.0 0.00 0.00 0.00 38 1014.3
20260901193615 98 46 5.0 14.0 0.00 0.00 0.00 39 1014.4
20260901193606 96 14 4.0 12.0 0.00 0.00 0.00 41 1014.5
20260901192555 97 49 5.0 12.0 0.00 0.00 0.00 40 1014.7
20260901192546 98 82 4.0 12.0 0.00 0.00 0.00 39 1014.7
20260901191535 99 46 3.0 12.0 0.00 0.00 0.00 39 1014.7
20260901191026 99 117 3.0 10.0 0.00 0.00 0.00 38 1014.8
20260901190515 98 99 4.0 11.0 0.00 0.00 0.00 39 1014.9
20260901190006 98 165 5.0 12.0 0.00 0.00 0.00 40 1015.0
20260901185956 97 157 5.0 12.0 0.00 0.00 0.00 39 1015.1
20260901185446 97 128 4.0 8.0 0.00 0.00 0.00 40 1015.1
20260901184435 96 193 4.0 8.0 0.00 0.00 0.00 40 1015.2
20260901183926 98 119 5.0 11.0 0.00 0.00 0.00 39 1015.3
20260901183415 97 220 5.0 11.0 0.00 0.00 0.00 39 1015.5
20260901182905 98 123 4.0 10.0 0.00 0.00 0.00 39 1015.6
20260901182857 98 96 5.0 10.0 0.00 0.00 0.00 40 1015.6
20260901181845 97 140 5.0 13.0 0.00 0.00 0.00 40 1015.7
20260901181327 97 163 5.0 12.0 0.00 0.00 0.00 41 1015.7
20260901180817 96 177 4.0 12.0 0.00 0.00 0.00 41 1015.7
20260901180307 94 128 2.0 6.0 0.00 0.00 0.00 44 1015.9
20260901175757 95 75 3.0 7.0 0.00 0.00 0.00 43 1016.1
20260901175247 95 209 4.0 8.0 0.00 0.00 0.00 44 1016.1
20260901174737 94 148 3.0 8.0 0.00 0.00 0.00 44 1016.2
20260901174227 94 253 2.0 7.0 0.00 0.00 0.00 45 1016.3
20260901173717 95 83 3.0 9.0 0.00 0.00 0.00 44 1016.4
20260901173215 95 130 4.0 9.0 0.00 0.00 0.00 44 1016.5
20260901173206 96 161 4.0 9.0 0.00 0.00 0.00 44 1016.5
20260901172155 95 91 2.0 9.0 0.00 0.00 0.00 43 1016.5
20260901171645 94 150 2.0 9.0 0.00 0.00 0.00 46 1016.6
20260901171135 94 178 4.0 9.0 0.00 0.00 0.00 45 1016.6
20260901170625 95 182 4.0 9.0 0.00 0.00 0.00 44 1016.8
20260901170115 96 184 2.0 9.0 0.00 0.00 0.00 43 1016.8
20260901165605 96 127 3.0 6.0 0.00 0.00 0.00 45 1016.8
20260901165055 94 182 3.0 9.0 0.00 0.00 0.00 46 1016.9
20260901164537 95 184 1.0 9.0 0.00 0.00 0.00 45 1017.1
20260901164027 94 244 2.0 8.0 0.00 0.00 0.00 46 1017.1
20260901163517 93 139 3.0 11.0 0.00 0.00 0.00 46 1017.1
20260901163509 95 149 2.0 11.0 0.00 0.00 0.00 45 1017.1
20260901162958 95 216 2.0 7.0 0.00 0.00 0.00 47 1017.0
20260901161947 93 235 2.0 8.0 0.00 0.00 0.00 50 1017.1
20260901161437 92 247 2.0 9.0 0.00 0.00 0.00 49 1017.1
20260901160930 92 228 2.0 9.0 0.00 0.00 0.00 50 1017.1
20260901160424 92 227 2.0 5.0 0.00 0.00 0.00 50 1017.0
20260901160419 92 220 2.0 7.0 0.00 0.00 0.00 51 1017.0
20260901155359 92 216 2.0 7.0 0.00 0.00 0.00 51 1017.1
20260901155352 92 207 2.0 5.0 0.00 0.00 0.00 51 1017.1
20260901154341 92 224 2.0 8.0 0.00 0.00 0.00 51 1017.1
20260901153831 91 213 2.0 6.0 0.00 0.00 0.00 52 1017.0
20260901153321 91 208 2.0 6.0 0.00 0.00 0.00 52 1017.1
20260901152817 91 234 2.0 6.0 0.00 0.00 0.00 52 1017.0
20260901152812 91 279 2.0 6.0 0.00 0.00 0.00 53 1017.0
20260901151804 90 245 1.0 5.0 0.00 0.00 0.00 54 1017.0
20260901151259 89 201 1.0 4.0 0.00 0.00 0.00 56 1017.0
20260901150754 89 242 3.0 6.0 0.00 0.00 0.00 56 1017.0
20260901150252 89 281 3.0 7.0 0.00 0.00 0.00 57 1017.0
20260901145746 88 223 2.0 7.0 0.00 0.00 0.00 58 1017.1
20260901145245 88 158 2.0 6.0 0.00 0.00 0.00 57 1017.0
20260901145240 88 262 2.0 6.0 0.00 0.00 0.00 58 1017.1
20260901144731 87 216 2.0 6.0 0.00 0.00 0.00 59 1017.2
20260901143727 86 182 1.0 6.0 0.00 0.00 0.00 60 1017.2
20260901143722 87 134 2.0 7.0 0.00 0.00 0.00 60 1017.2
20260901142717 86 209 2.0 7.0 0.00 0.00 0.00 61 1017.2
20260901142213 85 226 2.0 9.0 0.00 0.00 0.00 62 1017.2
20260901141710 85 240 2.0 9.0 0.00 0.00 0.00 61 1017.3
20260901141205 85 205 2.0 8.0 0.00 0.00 0.00 62 1017.3
20260901140656 85 216 2.0 7.0 0.00 0.00 0.00 64 1017.3
20260901140153 84 201 2.0 7.0 0.00 0.00 0.00 64 1017.2
20260901135645 84 178 1.0 3.0 0.00 0.00 0.00 64 1017.2
20260901135140 83 196 1.0 4.0 0.00 0.00 0.00 65 1017.2
20260901134631 83 199 1.0 4.0 0.00 0.00 0.00 65 1017.2
20260901134123 82 209 1.0 4.0 0.00 0.00 0.00 66 1017.2
20260901133616 81 172 3.0 6.0 0.00 0.00 0.00 68 1017.2
20260901133611 81 198 2.0 6.0 0.00 0.00 0.00 67 1017.2
20260901132601 81 157 2.0 5.0 0.00 0.00 0.00 68 1017.1
20260901132054 80 166 3.0 6.0 0.00 0.00 0.00 68 1017.2
20260901131546 80 159 2.0 6.0 0.00 0.00 0.00 68 1017.1
20260901131038 80 142 2.0 5.0 0.00 0.00 0.00 68 1017.1
20260901130528 80 128 2.0 7.0 0.00 0.00 0.00 68 1017.0
20260901130020 80 165 1.0 7.0 0.00 0.00 0.00 68 1016.9
20260901125512 80 172 1.0 5.0 0.00 0.00 0.00 68 1016.8
20260901125001 80 166 2.0 8.0 0.00 0.00 0.00 68 1016.8
20260901124452 79 209 3.0 8.0 0.00 0.00 0.00 68 1016.7
20260901123949 79 149 2.0 7.0 0.00 0.00 0.00 68 1016.6
20260901123945 79 159 0.0 4.0 0.00 0.00 0.00 67 1016.6
20260901122935 79 267 1.0 4.0 0.00 0.00 0.00 67 1016.5
20260901122417 79 152 1.0 4.0 0.00 0.00 0.00 67 1016.4
20260901121906 79 162 0.0 3.0 0.00 0.00 0.00 67 1016.4
20260901121357 79 161 0.0 3.0 0.00 0.00 0.00 67 1016.3
20260901120846 79 161 0.0 3.0 0.00 0.00 0.00 67 1016.2
20260901120338 79 143 0.0 1.0 0.00 0.00 0.00 67 1016.1
20260901115827 80 143 0.0 1.0 0.00 0.00 0.00 66 1016.1
20260901115317 80 135 0.0 1.0 0.00 0.00 0.00 66 1016.1
20260901114806 80 134 0.0 2.0 0.00 0.00 0.00 66 1016.1
20260901114257 80 134 1.0 5.0 0.00 0.00 0.00 66 1016.1
20260901113746 80 133 1.0 5.0 0.00 0.00 0.00 66 1016.2
20260901113236 80 150 1.0 3.0 0.00 0.00 0.00 66 1016.1
20260901112726 80 150 1.0 3.0 0.00 0.00 0.00 65 1016.2
20260901112216 80 211 1.0 2.0 0.00 0.00 0.00 65 1016.1
20260901112207 80 211 1.0 3.0 0.00 0.00 0.00 64 1015.8
20260901111157 80 216 1.0 2.0 0.00 0.00 0.00 64 1015.8
20260901110641 80 218 0.0 2.0 0.00 0.00 0.00 64 1015.7
20260901110139 80 220 0.0 4.0 0.00 0.00 0.00 64 1015.6
20260901105639 81 220 0.0 4.0 0.00 0.00 0.00 64 1015.6
20260901105129 81 230 0.0 5.0 0.00 0.00 0.00 63 1015.6
20260901104705 81 215 2.0 6.0 0.00 0.00 0.00 63 1015.5
20260901104618 81 232 1.0 5.0 0.00 0.00 0.00 63 1015.7
20260901104601 81 206 2.0 7.0 0.00 0.00 0.00 63 1015.6
20260901103050 81 186 2.0 7.0 0.00 0.00 0.00 63 1015.6
20260901102538 81 183 2.0 6.0 0.00 0.00 0.00 62 1015.6
20260901102027 81 153 2.0 7.0 0.00 0.00 0.00 62 1015.6
20260901101519 81 189 2.0 7.0 0.00 0.00 0.00 62 1015.6
20260901101008 82 236 2.0 8.0 0.00 0.00 0.00 61 1015.5
20260901100458 82 203 3.0 8.0 0.00 0.00 0.00 61 1015.5
20260901100449 82 187 2.0 9.0 0.00 0.00 0.00 61 1015.5
20260901095430 82 231 2.0 9.0 0.00 0.00 0.00 61 1015.6
20260901095421 82 186 3.0 7.0 0.00 0.00 0.00 60 1015.6
20260901094410 82 188 3.0 7.0 0.00 0.00 0.00 60 1015.6
20260901093900 82 174 3.0 9.0 0.00 0.00 0.00 60 1015.7
20260901093843 83 220 3.0 8.0 0.00 0.00 0.00 60 1015.7
20260901093447 83 230 2.0 9.0 0.00 0.00 0.00 60 1015.7
20260901092330 83 220 2.0 8.0 0.00 0.00 0.00 59 1015.7
20260901091822 83 216 2.0 9.0 0.00 0.00 0.00 59 1015.7
20260901091323 83 210 3.0 10.0 0.00 0.00 0.00 59 1015.7
20260901090822 83 220 3.0 10.0 0.00 0.00 0.00 59 1015.6
20260901090312 83 200 3.0 10.0 0.00 0.00 0.00 59 1015.6
20260901085802 84 210 3.0 9.0 0.00 0.00 0.00 59 1015.5
20260901085252 84 213 4.0 9.0 0.00 0.00 0.00 58 1015.6
20260901084742 84 201 4.0 10.0 0.00 0.00 0.00 58 1015.6
20260901084233 84 247 4.0 10.0 0.00 0.00 0.00 57 1015.6
20260901083722 84 175 4.0 12.0 0.00 0.00 0.00 57 1015.6
20260901083212 84 234 5.0 12.0 0.00 0.00 0.00 57 1015.6
20260901082702 84 155 5.0 11.0 0.00 0.00 0.00 57 1015.6
20260901082144 85 210 5.0 11.0 0.00 0.00 0.00 56 1015.7
20260901081634 85 204 6.0 12.0 0.00 0.00 0.00 56 1015.6
20260901081628 85 155 5.0 12.0 0.00 0.00 0.00 56 1015.6
20260901081122 85 211 5.0 12.0 0.00 0.00 0.00 56 1015.6
20260901080733 85 186 5.0 12.0 0.00 0.00 0.00 55 1015.6
20260901075619 85 199 5.0 12.0 0.00 0.00 0.00 55 1015.6
20260901075122 85 169 6.0 15.0 0.00 0.00 0.00 54 1015.5
20260901075118 85 174 6.0 14.0 0.00 0.00 0.00 54 1015.6
20260901074115 85 138 5.0 15.0 0.00 0.00 0.00 53 1015.5
20260901074101 85 147 5.0 9.0 0.00 0.00 0.00 52 1015.5
20260901073704 85 143 6.0 10.0 0.00 0.00 0.00 52 1015.5
20260901072549 85 187 4.0 9.0 0.00 0.00 0.00 51 1015.5
20260901072039 86 145 5.0 9.0 0.00 0.00 0.00 51 1015.5
20260901071523 86 134 4.0 10.0 0.00 0.00 0.00 51 1015.4
20260901071504 86 153 4.0 9.0 0.00 0.00 0.00 50 1015.3
20260901071108 86 154 4.0 10.0 0.00 0.00 0.00 50 1015.3
20260901065952 86 150 4.0 9.0 0.00 0.00 0.00 50 1015.3
20260901065442 86 158 5.0 10.0 0.00 0.00 0.00 50 1015.3
20260901064932 86 170 5.0 10.0 0.00 0.00 0.00 49 1015.2
20260901064420 86 165 5.0 13.0 0.00 0.00 0.00 49 1015.1
20260901063910 86 153 5.0 13.0 0.00 0.00 0.00 49 1015.1
20260901063901 86 168 4.0 10.0 0.00 0.00 0.00 49 1015.1
20260901062850 86 131 4.0 9.0 0.00 0.00 0.00 49 1015.0
20260901062344 86 136 4.0 8.0 0.00 0.00 0.00 49 1015.1
20260901061835 86 141 3.0 7.0 0.00 0.00 0.00 48 1015.0
20260901061330 86 146 3.0 7.0 0.00 0.00 0.00 48 1015.0
20260901060822 86 120 3.0 9.0 0.00 0.00 0.00 48 1014.9
20260901060316 86 117 3.0 9.0 0.00 0.00 0.00 47 1014.8
20260901055810 86 111 2.0 8.0 0.00 0.00 0.00 47 1014.7
20260901055254 86 126 2.0 9.0 0.00 0.00 0.00 47 1014.8
20260901054752 86 109 3.0 9.0 0.00 0.00 0.00 46 1014.8
20260901054740 86 139 3.0 7.0 0.00 0.00 0.00 46 1014.7
20260901053742 86 139 3.0 9.0 0.00 0.00 0.00 46 1014.6
20260901053737 86 145 3.0 9.0 0.00 0.00 0.00 46 1014.6
20260901052728 86 124 2.0 7.0 0.00 0.00 0.00 46 1014.4
20260901052220 86 132 1.0 7.0 0.00 0.00 0.00 46 1014.4
20260901051712 86 118 2.0 7.0 0.00 0.00 0.00 46 1014.3
20260901051213 86 132 3.0 6.0 0.00 0.00 0.00 45 1014.3
20260901051209 87 120 3.0 7.0 0.00 0.00 0.00 46 1014.3
20260901050202 87 133 3.0 6.0 0.00 0.00 0.00 45 1014.3
20260901050157 87 128 2.0 6.0 0.00 0.00 0.00 45 1014.3
20260901045647 87 120 2.0 6.0 0.00 0.00 0.00 44 1014.3
20260901045137 87 130 2.0 6.0 0.00 0.00 0.00 45 1014.2
20260901044123 87 125 3.0 7.0 0.00 0.00 0.00 44 1014.2
20260901043613 87 137 3.0 7.0 0.00 0.00 0.00 43 1014.2
20260901043102 87 131 3.0 6.0 0.00 0.00 0.00 44 1014.3
20260901042552 87 129 3.0 7.0 0.00 0.00 0.00 44 1014.3
20260901042543 87 139 3.0 7.0 0.00 0.00 0.00 43 1014.2
20260901041533 87 124 2.0 7.0 0.00 0.00 0.00 43 1014.3
20260901041514 87 140 2.0 6.0 0.00 0.00 0.00 42 1014.3
20260901040502 87 139 2.0 7.0 0.00 0.00 0.00 42 1014.3
20260901035952 87 132 3.0 7.0 0.00 0.00 0.00 42 1014.3
20260901035434 87 132 3.0 7.0 0.00 0.00 0.00 41 1014.3
20260901034925 88 132 2.0 7.0 0.00 0.00 0.00 41 1014.3
20260901034907 88 137 2.0 6.0 0.00 0.00 0.00 41 1014.3
20260901033856 88 130 2.0 6.0 0.00 0.00 0.00 41 1014.3
20260901033345 88 128 1.0 4.0 0.00 0.00 0.00 40 1014.3
20260901033328 89 123 1.0 4.0 0.00 0.00 0.00 39 1014.3
20260901032933 89 124 1.0 4.0 0.00 0.00 0.00 40 1014.3
20260901031814 89 134 1.0 6.0 0.00 0.00 0.00 39 1014.3
20260901031304 89 131 2.0 6.0 0.00 0.00 0.00 39 1014.3
20260901030754 90 134 1.0 5.0 0.00 0.00 0.00 38 1014.2
20260901030745 90 127 1.0 3.0 0.00 0.00 0.00 38 1014.1
20260901025732 90 123 2.0 6.0 0.00 0.00 0.00 37 1014.1
20260901025215 90 145 2.0 6.0 0.00 0.00 0.00 37 1014.0
20260901024704 90 135 2.0 5.0 0.00 0.00 0.00 37 1014.0
20260901024655 91 135 3.0 7.0 0.00 0.00 0.00 36 1013.9
20260901023644 91 122 3.0 7.0 0.00 0.00 0.00 36 1013.9
20260901023134 91 133 2.0 5.0 0.00 0.00 0.00 37 1013.8
20260901023126 91 139 2.0 7.0 0.00 0.00 0.00 37 1013.8
20260901022114 92 136 2.0 7.0 0.00 0.00 0.00 36 1013.7
20260901021604 92 138 2.0 5.0 0.00 0.00 0.00 36 1013.7
20260901021538 92 151 1.0 7.0 0.00 0.00 0.00 36 1013.6
20260901021140 92 155 2.0 7.0 0.00 0.00 0.00 36 1013.6
20260901020022 92 130 1.0 3.0 0.00 0.00 0.00 36 1013.5
20260901020014 93 129 2.0 5.0 0.00 0.00 0.00 36 1013.4
20260901015002 93 140 2.0 5.0 0.00 0.00 0.00 36 1013.4
20260901014453 93 110 2.0 6.0 0.00 0.00 0.00 35 1013.3
20260901013940 94 135 2.0 6.0 0.00 0.00 0.00 35 1013.3
20260901013430 94 141 2.0 6.0 0.00 0.00 0.00 34 1013.2
20260901012920 94 130 3.0 7.0 0.00 0.00 0.00 34 1013.3
20260901012911 94 135 3.0 7.0 0.00 0.00 0.00 34 1013.3
20260901012400 94 155 3.0 8.0 0.00 0.00 0.00 34 1013.2
20260901011350 94 127 3.0 8.0 0.00 0.00 0.00 33 1013.3
20260901010840 95 141 2.0 8.0 0.00 0.00 0.00 33 1013.2
20260901010331 95 148 3.0 8.0 0.00 0.00 0.00 33 1013.1
20260901005820 95 141 2.0 7.0 0.00 0.00 0.00 32 1013.1
20260901005811 95 93 2.0 7.0 0.00 0.00 0.00 32 1013.1
20260901004801 96 139 2.0 7.0 0.00 0.00 0.00 32 1013.1
20260901004250 96 122 3.0 7.0 0.00 0.00 0.00 31 1013.1
20260901004237 96 118 3.0 8.0 0.00 0.00 0.00 32 1013.0
20260901003728 96 156 3.0 9.0 0.00 0.00 0.00 32 1013.1
20260901002726 96 113 4.0 10.0 0.00 0.00 0.00 31 1013.0
20260901002314 96 126 3.0 11.0 0.00 0.00 0.00 32 1013.0
20260901002216 96 148 4.0 10.0 0.00 0.00 0.00 32 1013.1
20260901002208 97 132 3.0 11.0 0.00 0.00 0.00 31 1013.1
20260901000656 97 148 3.0 11.0 0.00 0.00 0.00 31 1013.1
20260901000147 97 141 2.0 7.0 0.00 0.00 0.00 32 1013.0
20260831235636 97 161 3.0 9.0 0.00 0.00 0.00 30 1013.0
20260831235126 97 106 4.0 12.0 0.00 0.00 0.00 31 1013.1
20260831234619 97 139 4.0 12.0 0.00 0.00 0.00 30 1013.1
20260831234110 98 145 4.0 10.0 0.00 0.00 0.00 30 1013.1
20260831233558 98 78 5.0 13.0 0.00 0.00 0.00 31 1013.1
20260831233048 98 124 6.0 13.0 0.00 0.00 0.00 30 1013.1
20260831233039 98 118 6.0 16.0 0.00 0.00 0.00 30 1013.1
20260831232030 98 164 6.0 16.0 0.00 0.00 0.00 31 1013.1
20260831231521 98 128 6.0 12.0 0.00 0.00 0.00 31 1013.0
20260831231057 99 123 4.0 9.0 0.00 0.00 0.00 30 1013.1
20260831231010 98 145 4.0 12.0 0.00 0.00 0.00 30 1013.1
20260831230953 99 87 5.0 10.0 0.00 0.00 0.00 31 1013.1
20260831225442 98 108 5.0 12.0 0.00 0.00 0.00 31 1013.1
20260831224941 99 85 5.0 12.0 0.00 0.00 0.00 30 1013.1
20260831224441 99 80 5.0 13.0 0.00 0.00 0.00 30 1013.2
20260831223932 99 87 6.0 14.0 0.00 0.00 0.00 30 1013.2
20260831223420 99 191 6.0 14.0 0.00 0.00 0.00 30 1013.2
20260831222917 100 138 5.0 14.0 0.00 0.00 0.00 30 1013.2
20260831222912 100 194 5.0 13.0 0.00 0.00 0.00 30 1013.2
20260831221910 99 135 5.0 10.0 0.00 0.00 0.00 30 1013.2
20260831221402 100 88 4.0 10.0 0.00 0.00 0.00 31 1013.2
20260831220855 100 92 4.0 11.0 0.00 0.00 0.00 30 1013.3
20260831220350 99 99 4.0 11.0 0.00 0.00 0.00 30 1013.3
20260831215844 99 85 4.0 13.0 0.00 0.00 0.00 29 1013.4
20260831215330 100 103 5.0 13.0 0.00 0.00 0.00 29 1013.5
20260831214824 99 126 5.0 14.0 0.00 0.00 0.00 30 1013.6
20260831214316 100 160 6.0 14.0 0.00 0.00 0.00 30 1013.6